Regional Weather Roundup
Issued by NWS

Home | Current Version | Previous Version | Text Only | Print | Product List | Glossary On
Versions: 1 2 3 4 5 6 7 8 9 10 11 12 13 14 15 16 17 18 19 20 21 22 23 24 25 26 27 28 29 30 31 32 33 34 35 36 37 38 39 40 41 42 43 44 45 46 47 48 49 50
000
ASUS44 KFWD 010315
RWRTX
NORTH TEXAS HOURLY WEATHER ROUNDUP
NATIONAL WEATHER SERVICE FORT WORTH TX
1000 PM CDT THU JUL 31 2014

NOTE: "FAIR" INDICATES FEW OR NO CLOUDS BELOW 12,000 FEET WITH NO
SIGNIFICANT WEATHER AND/OR OBSTRUCTIONS TO VISIBILITY.

TXZ118-119-010400-
DALLAS/FORT WORTH METROPLEX

CITY           SKY/WX    TMP DP  RH WIND       PRES   REMARKS
DFW AIRPORT    CLOUDY    71  65  81 N14       30.00R
DALLAS LOVE    CLOUDY    71  65  81 N12       29.99S
FTW MEACHAM    CLOUDY    72  65  78 N12       30.00S
DAL-EXECUTIVE  CLOUDY    72  66  81 N10       29.99R
FTW-ALLIANCE   CLOUDY    70  65  84 N10       30.01R
FTW-NAS-JRB    MOCLDY    74  63  68 N10       30.05S
ARLINGTON      CLOUDY    73  64  73 N17       29.99S
GRAND PRAIRIE  CLOUDY    72  64  77 N15       30.01S
MESQUITE       CLOUDY    69  67  94 N10G16    29.99
LANCASTER      CLOUDY    71  64  80 N7        29.99F
$$

TXZ091>094-102>105-117-120-121-131>134-010400-
NORTH CENTRAL TEXAS

CITY           SKY/WX    TMP DP  RH WIND       PRES   REMARKS
SHRMAN/DENISON CLOUDY    69  66  91 NE5       30.04R
GAINESVILLE    CLOUDY    68  65  90 N5        30.06R
BOWIE          CLOUDY    69  66  89 E5        30.05R
BRIDGEPORT     CLEAR     69  63  79 E6        30.05S
DECATUR        CLEAR     67  65  92 N5        30.04S
DENTON         CLOUDY    70  64  83 N9        30.02R
MCKINNEY       CLOUDY    70  66  87 NE10      30.00S
ROCKWALL       CLOUDY    68  67  98 N10G21    29.98F
TERRELL        CLOUDY    71  70  96 N13       29.98R
WAXAHACHIE     CLOUDY    71  65  81 N13       30.00S
CLEBURNE       CLOUDY    73  68  83 N14       30.02R
GRANBURY       PTCLDY    73  65  75 N6        30.03R
$$

TXZ083>090-098>101-113>116-127>130-139>142-154-155-010400-
WESTERN NORTH TEXAS

CITY           SKY/WX    TMP DP  RH WIND       PRES   REMARKS
WICHITA FALLS  PTCLDY    72  66  81 NE5       30.04R
WF-KICKAPOO    CLEAR     73  66  79 CALM      30.06R
VERNON         PTCLDY    73  64  74 CALM      30.08R
ABILENE        CLOUDY    76  64  66 NE7       30.08R
BRECKENRIDGE   CLOUDY    76  64  66 NE5       30.05R
GRAHAM         CLOUDY    74  65  75 CALM      30.03R
MINERAL WELLS  CLEAR     71  65  81 NE3       30.02R
STEPHENVILLE   CLOUDY    73  63  69 N5        30.06S
COMANCHE       CLOUDY    75  64  67 NE8       30.05R
BROWNWOOD      CLOUDY    77  64  65 NE6       30.04R
COLEMAN        CLOUDY    76  62  61 NE7       30.06R
BRADY          MOCLDY    77  63  61 N10       30.04R
$$

TXZ143>147-156>162-174-175-010400-
CENTRAL TEXAS

CITY           SKY/WX    TMP DP  RH WIND       PRES   REMARKS
WACO           PTCLDY    75  65  70 N12       29.98R
WACO-TSTC      MOCLDY    75  64  69 N5        29.99R
WACO-MCGREGOR  CLEAR     75  63  64 N10       30.00R
HILLSBORO      CLOUDY    73  65  75 N10       29.99R
CORSICANA      LGT RAIN  72  69  90 N9        29.99R FOG
MEXIA          CLOUDY    74  67  77 NW7       29.96R
HEARNE         CLOUDY    80  67  65 N7        29.98R
CAMERON        CLEAR     78  66  67 N5        29.97R
TEMPLE         CLEAR     75  61  60 N10       29.98R
KILLEEN        PTCLDY    75  64  69 N10       30.00
KILLEEN-SKYLRK CLEAR     75  61  60 N8        29.99R
FORT HOOD      CLEAR     78  64  61 N6        30.00R
GATESVILLE     CLEAR     75  64  69 N5        30.03R
HAMILTON       CLOUDY    75  64  68 N9        30.03S
LAMPASAS       CLEAR     76  67  75 N7        30.00R
$$

TXZ095>097-106>112-122>126-135>138-148>153-164>167-010400-
EAST TEXAS

CITY           SKY/WX    TMP DP  RH WIND       PRES   REMARKS
PARIS          CLOUDY    66  63  88 NE12      30.02R
SULPHUR SPRNGS CLOUDY    69  68  98 NE6       30.01S FOG
CLARKSVILLE    CLOUDY    69  68  98 NE8       30.01R
MOUNT PLEASANT CLOUDY    70  69  98 NE6       30.01R
GILMER         DRIZZLE   72  72 100 NE6       29.99R
MINEOLA        CLOUDY    72  72 100 NE3       29.98R FOG
TYLER          CLOUDY    72  69  90 NE7       29.96R
LONGVIEW       CLOUDY    72  70  94 NE9       29.96R
MARSHALL       CLOUDY    73  71  92 E5        29.99R
ATHENS         CLOUDY    73  72  94 N8        29.94R
JACKSONVILLE   CLOUDY    75  74  96 CALM      29.97R
HENDERSON      CLOUDY    75  74  98 CALM      29.95R
NACOGDOCHES    CLOUDY    73  73 100 CALM      29.95R
LUFKIN         CLOUDY    77  73  87 S5        29.94R
$$

SUPPLEMENTAL OBSERVATIONS (CENTRAL)

CITY           SKY/WX    TMP DP  RH WIND       PRES   REMARKS
PAT MAYSE LAKE   N/A     66  64  94 N6          N/A
GREENVILLE       N/A     66  63  88 NE9         N/A
CEDAR HILL       N/A     72  64  78 N6G14       N/A
PALESTINE        N/A     73  70  88 NW3         N/A
LAKE LIMESTONE   N/A     75  68  78 NW3         N/A
MCGREGOR         N/A     75  64  69 N5G15       N/A
TEMPLE           N/A     77  64  65 N2G12       N/A
$$

SUPPLEMENTAL OBSERVATIONS (WEST)

CITY           SKY/WX    TMP DP  RH WIND       PRES   REMARKS
MILLERS CREEK    N/A    N/A N/A N/A N3          N/A
POSSUM KINGDOM   N/A     73  64  73 NE3         N/A
GRANBURY         N/A     72  63  73 VRB7        N/A
COMANCHE         N/A     75  63  64 NE8         N/A
HAMBY            N/A    N/A N/A N/A NE5         N/A
IVIE RESERVOIR   N/A     75  61  60 NE8         N/A
COLORADO BEND    N/A     73  63  68 NE5         N/A
$$

SUPPLEMENTAL OBSERVATIONS (EAST)

CITY           SKY/WX    TMP DP  RH WIND       PRES   REMARKS
CLARKSVILLE      N/A     66  64  94 NE6         N/A
TEXARKANA        N/A     70  66  88 E3          N/A
LINDEN           N/A     70  66  88 E6          N/A
CADDO LAKE       N/A     70  68  94 E6          N/A
GILMER           N/A     70  66  88 E3          N/A
HENDERSON        N/A     75  72  88 CALM        N/A
LUFKIN           N/A     75  73  94 MISG        N/A
N SABINE NF      N/A     75  73  94 MISG        N/A
S SABINE NF      N/A     77  72  83 E2          N/A
$$

SUPPLEMENTAL OBSERVATIONS ARE A COLLECTION OF AUTOMATED INSTRUMENTS
THAT ARE MAINTAINED BY A VARIETY OF FEDERAL AND STATE AGENCIES.
CERTAIN ELEMENTS...SUCH AS HUMIDITY VALUES AND SUSTAINED WIND
SPEEDS...MAY BE APPROXIMATED.



USA.gov is the U.S. government's official web portal to all federal, state and local government web resources and services.